Cadjehoun Airport

Jump to: basic info | weather | frequencies | runways | comments

Related pages: nearby airports | nearby navaids | notams | map

Basic information (top)

Codes: COO DBBB
Location: lon 6.357230, lat 2.384350, elev 19 ft / 6 m msl
Status: medium_airport
Scheduled airline service: yes
Links: Wikipedia Mobile

Weather (top)

Current conditions (rec'd 2014/08/20 16:00Z):

DBBB 201600Z 22011KT 9999 SCT011 26/25 Q1011 NOSIG

Airport forecast (rec'd 2014/08/20 06:09Z):

TAF DBBB 200500Z 2006/2112 22012KT 9999 SCT012 
      TEMPO 2006/2010 4000 RADZ BKN008 
      TEMPO 2012/2018 BKN010 FEW023CB PROB30 2013/2017 4000 SHRA 
      TEMPO 2103/2109 BKN008

Frequencies (top)

Verify before use: may be inaccurate or out of date.

A/G: 658.6 MHz (A/G VOICE RDO)
APP: 125.9 MHz (APP)
TWR: 125.9 MHz (TWR)

Runways (top)

06/24: 7,874 x 148 ft (2,400 x 45 m) — paved — lighted — threshold 06 displaced 125 ft (38 m)

Latest comments (top)

No comments yet for Cadjehoun Airport

More... (top)

See also NOTAMs and nearby airports and navaids, or visit the Cadjehoun Airport page at the main OurAirports website..